Location: Battersea Observatory
(44.4318°N, 76.3841°W)
Time: 09:55:01
(UTC-05:00)

ISS - Visible Passes

Search period start: 28 November 2021 00:00
Search period end: 08 December 2021 00:00
Orbit: 417 x 423 km, 51.6° (Epoch: 28 November)

Date Brightness Start Highest point End Pass type
(mag) Time Alt. Az. Time Alt. Az. Time Alt. Az.
28 Nov -2.2 18:06:03 10° NW 18:08:52 23° N 18:09:08 23° N visible
29 Nov -2.2 17:18:40 10° WNW 17:21:29 24° N 17:23:51 13° NE visible
29 Nov -1.1 18:55:54 10° NW 18:56:50 16° NW 18:56:50 16° NW visible
30 Nov -2.4 18:08:42 10° NW 18:11:33 27° N 18:11:33 27° N visible
01 Dec -2.3 17:21:27 10° NW 17:24:17 24° N 17:26:19 15° NE visible
01 Dec -1.2 18:58:15 10° NW 18:59:18 18° NW 18:59:18 18° NW visible
02 Dec -3.1 18:11:04 10° NW 18:14:08 40° N 18:14:08 40° N visible
03 Dec -2.8 17:23:52 10° NW 17:26:58 32° NNE 17:29:02 17° ENE visible
03 Dec -1.4 19:00:37 10° WNW 19:02:02 23° WNW 19:02:02 23° WNW visible
04 Dec -3.9 18:13:21 10° WNW 18:16:45 85° NNE 18:17:05 70° ESE visible
05 Dec -3.6 17:26:07 10° NW 17:29:28 57° NNE 17:32:18 13° ESE visible
05 Dec -1.2 19:03:19 10° W 19:05:20 21° WSW 19:05:20 21° WSW visible
06 Dec -2.3 18:15:45 10° WNW 18:18:56 37° SW 18:20:49 20° SSE visible
07 Dec -3.2 17:28:21 10° WNW 17:31:42 60° SW 17:35:02 10° SE visible
